Date,TemperatureHighF,TemperatureAvgF,TemperatureLowF,DewpointHighF,DewpointAvgF,DewpointLowF,HumidityHigh,HumidityAvg,HumidityLow,PressureMaxIn,PressureMinIn,WindSpeedMaxMPH,WindSpeedAvgMPH,GustSpeedMaxMPH,PrecipitationSumIn
2013-1-1,65.1,52.7,41.5,35.2,27.2,20.3,44,37,33,30.24,30.10,7,1,14,0.00
2013-1-2,70.5,55.2,42.2,39.2,28.5,19.0,39,36,32,30.13,29.99,6,2,16,0.00
2013-1-3,73.2,54.3,40.8,41.5,27.8,17.9,40,36,32,30.21,30.05,6,2,8,0.00
2013-1-4,73.0,54.1,42.0,41.4,27.6,18.9,39,36,32,30.26,30.11,4,2,8,0.00
2013-1-5,42.0,42.0,42.0,18.9,18.9,18.9,39,39,39,30.21,30.21,4,4,4,0.00
2013-1-6,42.0,42.0,42.0,18.9,18.9,18.9,39,39,39,30.21,30.21,4,4,4,0.00
2013-1-7,57.3,43.3,42.0,30.0,20.6,18.9,48,40,35,30.21,29.99,5,4,6,0.00
2013-1-8,47.3,44.0,43.3,23.2,20.7,20.0,41,39,38,30.06,29.91,6,1,6,0.00
2013-1-9,43.7,43.7,43.7,20.3,20.3,20.3,39,39,39,30.03,30.03,0,0,3,0.00
2013-1-10,43.7,43.7,43.7,20.3,20.3,20.3,39,39,39,30.03,30.03,0,0,3,0.00
2013-1-11,43.7,43.7,43.7,20.3,20.3,20.3,39,39,39,30.03,30.03,0,0,3,0.00
2013-1-12,43.7,43.7,43.7,20.3,20.3,20.3,39,39,39,30.03,30.03,0,0,3,0.00
2013-1-13,64.5,49.3,43.7,34.9,24.3,20.3,39,37,33,30.15,30.03,5,2,10,0.00
2013-1-14,60.8,46.8,38.4,32.6,22.2,15.7,39,38,34,30.39,30.15,7,2,15,0.00
2013-1-15,67.4,48.2,35.4,37.3,23.2,13.5,40,37,33,30.39,30.30,5,1,9,0.00
2013-1-16,78.6,53.5,39.0,45.4,27.1,16.3,40,36,31,30.39,30.18,6,2,8,0.00
2013-1-17,83.6,62.9,45.1,48.0,33.8,21.0,38,34,29,30.20,30.08,6,2,12,0.00
2013-1-18,84.2,67.8,52.8,48.4,37.4,26.6,36,33,29,30.20,30.09,6,1,12,0.00
2013-1-19,82.7,67.6,50.5,47.6,37.2,25.2,37,33,29,30.23,30.10,5,2,9,0.00
2013-1-20,65.4,63.2,49.8,35.6,34.0,24.6,37,34,33,30.19,30.14,6,1,6,0.00
2013-1-21,85.1,68.0,50.3,49.2,37.4,25.0,37,33,29,30.20,30.01,5,2,11,0.00
2013-1-22,85.4,67.8,51.8,49.5,37.3,25.7,36,33,29,30.16,30.04,6,1,10,0.00
2013-1-23,80.2,66.1,55.4,45.9,36.6,30.8,46,34,30,30.17,30.03,5,1,9,0.04
2013-1-24,62.9,57.8,53.4,51.7,45.4,35.3,76,64,48,30.17,30.08,5,0,8,0.67
2013-1-25,63.5,60.5,57.3,48.6,42.7,36.5,70,53,37,30.13,29.98,5,0,9,0.08
2013-1-26,70.5,59.3,54.5,63.6,47.3,40.7,86,66,40,30.05,29.92,5,0,8,0.12
2013-1-27,66.0,56.0,46.2,51.1,37.0,22.0,73,51,34,30.05,29.98,7,2,10,0.00
2013-1-28,63.3,51.8,41.3,34.4,26.1,18.2,41,37,34,30.18,30.02,7,3,13,0.00
2013-1-29,41.5,41.5,41.5,19.6,19.6,19.6,41,41,41,30.18,30.18,4,4,4,0.00
2013-1-30,41.5,41.5,41.5,19.6,19.6,19.6,41,41,41,30.18,30.18,4,4,4,0.00
2013-1-31,80.7,52.4,41.5,46.4,27.8,19.6,47,39,30,30.23,30.14,5,2,6,0.00
2013-2-1,81.3,57.9,46.9,46.9,34.4,26.7,52,42,30,30.20,30.08,5,1,8,0.00
2013-2-2,73.7,63.9,53.4,42.0,35.9,30.4,47,35,32,30.25,30.13,6,1,11,0.00
2013-2-3,59.5,59.5,59.5,33.2,33.2,33.2,37,37,37,30.19,30.19,0,0,0,0.00
2013-2-9,43.1,41.9,40.8,26.2,25.5,24.6,55,52,51,30.12,30.09,0,0,0,0.00
2013-2-10,66.0,48.7,38.6,36.6,28.3,22.1,60,46,34,30.09,29.94,7,1,10,0.00
2013-2-11,68.9,50.6,39.3,38.6,29.2,18.3,67,45,33,30.18,29.97,5,1,10,0.00
2013-2-12,66.5,48.2,36.3,36.6,24.6,18.0,48,40,33,30.28,30.15,5,2,9,0.00
2013-2-13,70.1,50.3,37.9,39.2,29.3,18.7,57,45,32,30.24,30.12,7,2,8,0.00
2013-2-14,75.7,53.3,38.8,42.9,31.2,23.1,56,44,31,30.18,30.03,5,1,6,0.00
2013-2-15,66.3,66.2,63.5,36.3,36.2,34.6,34,33,33,30.13,30.10,2,0,6,0.00
2013-6-17,58.1,29.0,58.1,42.8,-28.6,-99.9,55,28,55,29.65,29.65,0,0,0,0.00
2013-6-18,77.3,65.9,54.0,55.4,44.4,39.2,72,48,32,29.77,29.53,4,1,8,0.00
2013-6-19,82.4,67.5,52.7,50.0,42.8,35.6,68,42,30,29.77,29.50,4,0,8,0.00
2013-6-20,80.4,66.6,52.5,47.0,41.4,35.6,59,41,31,29.80,29.47,4,1,8,0.00
2013-6-21,79.4,66.1,53.1,46.4,40.2,-99.9,59,40,31,29.83,29.53,4,1,8,0.00
2013-6-22,78.0,65.5,54.3,55.4,43.4,33.8,69,46,32,29.80,29.53,4,1,9,0.00
2013-6-23,73.8,64.4,55.0,51.8,45.2,41.0,67,51,34,29.74,29.56,4,1,10,0.00
2013-6-24,75.0,65.1,54.7,53.6,45.7,41.0,70,50,35,29.74,29.50,4,0,9,0.00
2013-6-25,76.3,65.4,57.2,57.6,47.2,42.8,73,53,35,29.89,29.68,5,1,8,0.00
2013-6-26,81.1,68.9,58.6,55.4,47.6,42.8,70,48,31,29.95,29.71,4,1,10,0.00
2013-6-27,86.7,71.5,61.0,55.4,49.2,45.2,67,47,30,30.07,29.74,4,1,8,0.00
2013-6-28,84.2,70.9,59.8,56.3,48.8,44.6,69,48,31,29.92,29.71,5,1,8,0.00
2013-6-29,87.6,73.8,60.4,55.4,48.7,42.8,67,43,29,29.83,29.59,4,1,8,0.00
2013-6-30,92.7,75.7,62.8,55.4,49.9,44.6,61,42,28,29.80,29.53,4,0,8,0.00
2013-7-1,84.8,72.6,65.1,59.0,53.0,46.4,74,53,31,29.89,29.65,4,0,8,0.00
2013-7-7,63.5,42.1,62.9,46.8,-2.2,-99.9,55,37,55,29.83,29.83,0,0,0,0.00
2013-7-8,78.9,71.4,59.2,48.2,45.2,42.8,56,40,33,30.03,29.86,5,2,11,0.00
2013-7-9,83.6,67.9,56.1,58.5,46.8,42.8,73,49,31,30.15,29.86,4,1,8,0.00
2013-7-10,80.2,67.9,58.8,55.4,48.2,43.4,67,50,33,30.03,29.89,3,0,8,0.00
2013-7-11,79.8,69.5,61.6,55.4,51.4,47.2,63,53,34,30.12,29.95,3,0,6,0.00
2013-7-12,78.1,65.8,57.5,60.3,49.0,45.4,74,56,34,30.09,29.95,5,1,9,0.00
2013-7-13,77.2,66.5,57.9,57.2,48.0,42.8,73,53,34,30.09,30.01,5,1,10,0.00
2013-7-14,79.2,66.5,55.9,55.6,46.5,42.8,72,50,32,30.09,29.95,4,1,9,0.00
2013-7-15,78.6,66.0,54.6,54.5,44.7,39.2,69,48,32,30.18,29.92,4,1,11,0.00
2013-7-16,78.3,64.3,51.1,55.4,44.0,39.2,72,50,32,30.33,30.01,4,1,9,0.00
2013-7-17,79.7,65.3,52.7,53.3,44.1,39.4,69,48,31,30.42,30.12,4,1,10,0.00
2013-7-18,78.1,64.9,52.5,55.4,44.7,41.0,71,50,32,30.30,30.09,5,1,10,0.00
2013-7-19,76.5,64.5,54.0,51.8,44.1,41.0,68,49,32,30.27,30.07,4,1,8,0.00
2013-7-20,78.6,66.7,55.9,55.4,46.7,41.5,70,51,34,30.24,30.07,4,1,9,0.00
2013-7-21,73.9,66.0,62.4,55.4,51.0,48.2,70,58,43,30.27,30.07,2,0,6,0.00
2013-7-22,80.6,69.3,62.6,64.4,52.2,44.2,83,57,32,30.42,30.18,4,0,8,0.00
2013-7-23,77.0,67.5,61.7,55.6,49.4,44.6,71,54,33,30.54,30.30,4,1,10,0.00
2013-7-24,75.8,65.4,60.1,53.6,48.4,42.8,73,56,35,30.39,30.27,5,1,10,0.00
2013-7-25,73.7,64.7,59.9,55.4,46.3,-99.9,70,54,37,30.48,30.24,4,1,11,0.00
2013-7-26,77.0,62.4,58.1,53.6,39.0,-99.9,70,49,33,30.57,30.30,4,1,9,0.00
2013-7-27,75.5,65.5,59.5,54.7,47.1,42.8,70,53,34,30.48,30.27,5,1,9,0.00
2013-7-28,72.7,64.2,59.2,53.6,47.2,42.8,71,55,37,30.36,30.27,4,0,8,0.00
2013-7-29,75.4,64.6,56.7,55.8,45.3,-99.9,74,53,33,30.63,30.27,4,1,10,0.00
2013-7-30,74.8,63.7,54.0,52.7,44.9,39.2,70,52,34,30.66,30.39,5,1,11,0.00
2013-7-31,72.6,61.5,51.8,51.8,44.8,41.0,71,56,35,30.51,30.39,4,1,10,0.00
2013-8-1,73.5,63.4,56.3,50.0,45.4,39.2,67,53,35,30.51,30.33,4,0,8,0.00
2013-8-2,77.1,64.3,53.9,57.2,45.6,41.0,78,53,33,30.54,30.27,5,1,13,0.00
2013-8-3,75.9,64.3,55.9,53.6,46.9,41.0,70,55,34,30.51,30.33,4,1,9,0.00
2013-8-4,73.9,63.6,56.6,53.6,46.7,41.5,74,56,34,30.60,30.33,4,1,9,0.00
2013-8-5,75.0,63.5,53.1,60.4,46.0,41.0,81,55,34,30.60,30.36,4,1,9,0.00
2013-8-6,75.1,61.1,56.5,51.8,37.9,-99.9,70,50,34,30.63,30.36,5,1,9,0.00
2013-8-7,75.2,63.0,53.8,56.1,43.1,-99.9,76,53,33,30.66,30.42,4,1,9,0.00
2013-8-8,77.4,65.2,52.7,55.8,46.4,42.5,74,53,33,30.57,30.39,5,1,9,0.00
2013-8-9,76.2,64.6,56.2,53.8,45.7,41.0,71,52,33,30.57,30.30,5,1,9,0.00
2013-8-10,75.4,64.8,54.6,54.1,46.0,41.0,71,53,34,30.57,30.36,5,1,10,0.00
2013-8-11,76.5,65.5,56.8,55.4,47.4,42.8,72,54,33,30.54,30.39,4,1,10,0.00
2013-8-12,76.7,65.8,57.7,53.6,47.4,42.8,74,54,34,30.54,30.36,5,1,10,0.00
2013-8-13,75.5,64.6,56.3,55.4,47.6,42.8,72,55,34,30.54,30.36,4,1,9,0.00
2013-8-14,76.0,64.9,57.3,55.4,49.5,44.6,75,59,35,30.45,30.33,4,1,9,0.00
2013-8-15,77.5,65.9,57.6,62.6,50.9,46.4,82,61,35,30.51,30.33,4,1,9,0.00
2013-8-16,77.5,66.0,57.5,59.8,48.7,-99.9,77,56,34,30.60,30.39,4,1,8,0.00
2013-8-17,76.6,65.7,57.7,59.0,47.4,42.8,74,53,34,30.57,30.39,4,1,8,0.00
2013-8-18,78.1,64.4,54.7,57.2,47.2,42.8,73,56,33,30.54,30.36,4,1,9,0.00
2013-8-19,77.7,65.6,59.4,59.0,48.3,-99.9,78,57,34,30.68,30.48,4,1,8,0.00
2013-8-20,77.0,65.2,57.7,55.4,46.4,-99.9,75,54,34,30.72,30.51,4,1,9,0.00
2013-8-21,78.7,65.2,54.1,55.4,45.0,39.2,72,50,32,30.74,30.54,5,0,9,0.00
2013-8-22,82.0,67.2,54.3,53.3,45.1,41.0,68,47,31,30.80,30.60,4,1,9,0.00
2013-8-23,81.6,65.7,54.1,53.8,44.8,41.0,69,49,31,30.77,30.57,3,0,8,0.00
2013-8-24,77.0,64.9,52.5,57.2,45.2,41.0,73,51,33,30.83,30.60,5,1,9,0.00
2013-8-25,78.6,65.3,52.8,56.9,45.8,41.0,73,51,33,30.95,30.72,3,1,9,0.00
2013-8-26,84.4,67.4,54.0,51.8,46.5,41.0,67,50,30,31.01,30.77,2,0,6,0.00
2013-8-27,82.2,68.9,63.0,53.6,47.1,41.7,58,46,31,31.01,30.74,4,0,8,0.00
2013-8-28,83.6,66.9,59.4,51.4,42.1,-99.9,60,45,31,31.01,30.80,4,0,8,0.00
2013-8-29,87.3,71.3,59.5,51.8,46.2,41.0,53,42,29,31.01,30.92,3,0,8,0.00
2013-8-30,97.9,78.1,63.7,57.2,49.0,42.8,55,38,26,31.01,30.98,1,0,6,0.00
2013-8-31,94.3,79.2,68.9,55.4,49.4,44.6,45,36,27,31.01,31.01,3,0,8,0.00
2013-9-1,84.4,73.7,66.7,55.4,51.7,46.4,65,47,31,31.01,31.01,3,0,8,0.00
2013-9-2,84.5,71.7,63.3,61.8,52.8,48.2,71,53,32,31.01,31.01,4,1,10,0.00
2013-9-3,88.8,74.1,64.2,60.4,51.5,46.4,69,47,29,31.01,31.01,4,0,8,0.00
2013-9-4,85.6,71.9,62.4,55.4,48.7,44.6,64,45,30,31.01,31.01,3,0,8,0.00
2013-9-5,87.6,70.7,59.7,55.4,48.3,44.6,65,47,29,31.01,31.01,3,0,8,0.00
2013-9-6,91.5,71.1,60.3,53.6,47.3,44.2,56,44,28,31.01,31.01,4,0,8,0.00
2013-9-7,86.4,67.8,59.2,51.8,44.8,37.4,60,44,30,31.01,31.01,4,0,9,0.00
2013-9-8,77.5,66.0,58.3,56.7,47.6,43.3,70,53,33,31.01,31.01,5,1,10,0.00
2013-9-9,73.5,63.1,56.9,57.2,48.6,44.6,76,60,39,31.01,31.01,4,1,9,0.00
2013-9-10,78.2,65.9,57.4,53.6,47.5,41.8,71,54,32,31.01,31.01,4,0,9,0.00
2013-9-11,78.5,66.3,56.6,53.6,46.1,41.0,68,50,32,31.01,31.01,4,1,10,0.00
2013-9-12,82.0,66.2,54.9,57.2,45.8,41.0,73,50,31,31.01,31.01,4,1,10,0.00
2013-9-13,85.4,66.5,56.1,53.6,42.8,-99.9,69,47,30,31.01,31.01,3,0,8,0.00
2013-9-18,79.0,68.8,57.5,48.2,45.2,42.8,63,44,32,31.01,31.01,4,1,8,0.00
2013-9-19,77.3,63.7,54.1,57.6,48.5,44.6,77,59,34,31.01,31.01,4,0,8,0.00
2013-9-20,72.6,65.8,63.0,53.6,49.1,44.6,68,55,41,31.01,31.01,3,0,8,0.00
2013-9-21,78.0,64.0,56.7,52.1,44.5,-99.9,67,53,32,31.01,31.01,5,1,11,0.00
2013-9-22,80.6,65.0,52.9,55.4,43.9,35.6,75,49,30,31.01,31.01,4,0,9,0.00
2013-9-23,87.3,69.8,55.6,51.8,39.8,31.0,40,34,29,31.01,31.01,4,0,8,0.00
2013-9-24,88.3,68.0,56.7,51.8,38.8,-99.9,49,35,28,31.01,31.01,5,1,8,0.00
2013-9-25,77.7,64.2,52.3,51.1,42.1,35.6,67,46,32,31.01,31.01,4,0,8,0.00
2013-9-26,77.9,64.0,51.6,46.4,39.1,28.9,61,41,31,31.01,31.01,7,1,15,0.00
2013-9-27,87.7,67.6,48.3,51.8,37.9,24.5,45,34,29,31.01,31.01,6,1,9,0.00
2013-9-28,87.0,69.7,55.6,51.8,38.7,28.4,35,32,29,31.01,31.01,6,1,8,0.00
2013-9-29,86.5,66.7,51.8,50.0,38.0,25.7,48,35,29,31.01,31.01,4,1,6,0.00
2013-9-30,83.9,65.0,51.6,50.0,38.3,26.9,58,38,30,31.01,31.01,4,0,6,0.00
2013-10-1,78.6,64.3,54.5,52.3,44.6,40.1,74,51,32,31.01,31.01,4,0,8,0.00
2013-10-2,78.8,64.4,54.0,55.4,46.5,41.0,72,54,31,31.01,31.01,4,1,11,0.00
2013-10-3,76.0,63.2,53.2,53.6,45.3,39.2,75,54,33,31.01,31.01,3,0,8,0.00
2013-10-4,87.9,72.2,54.0,51.8,46.5,34.7,77,44,28,31.01,31.01,5,1,20,0.00
2013-10-5,91.0,77.6,61.8,53.6,44.1,33.8,34,31,28,31.01,31.01,6,2,18,0.00
2013-10-6,98.3,76.3,58.4,57.2,42.2,-99.9,35,30,26,31.01,31.01,4,0,9,0.00
2013-10-7,80.2,62.6,54.2,46.4,36.6,-99.9,63,39,31,31.01,31.01,5,1,8,0.00
2013-10-8,75.9,60.4,47.8,45.7,41.2,37.4,70,51,32,31.01,31.01,4,0,8,0.00
2013-10-9,66.7,59.2,48.7,42.8,37.7,29.2,59,45,34,31.01,31.01,7,2,14,0.00
2013-10-12,64.0,64.0,64.0,51.8,51.8,51.8,64,64,64,31.01,31.01,0,0,0,0.00
2013-10-15,87.8,71.7,57.9,51.8,40.1,30.4,35,32,28,31.01,31.01,5,1,8,0.00
2013-10-16,90.8,74.5,54.9,53.3,42.1,28.4,36,31,28,31.01,31.01,5,1,12,0.00
2013-10-17,84.3,62.7,51.3,48.2,36.5,25.7,57,38,29,31.01,31.01,5,1,8,0.00
2013-10-18,82.3,62.2,49.8,48.2,37.1,27.2,56,40,30,31.01,31.01,4,0,7,0.00
2013-10-19,82.0,63.0,51.8,48.2,37.7,27.0,61,40,30,31.01,31.01,5,1,8,0.00
2013-10-20,74.5,59.2,47.1,48.2,39.8,29.9,67,50,33,31.01,31.01,4,0,8,0.00
2013-10-21,73.8,59.7,48.1,49.2,43.0,37.4,76,56,33,31.01,31.01,3,0,8,0.00
2013-10-22,71.2,57.8,48.0,55.1,43.8,39.2,82,61,35,31.01,31.01,3,0,9,0.00
2013-10-23,72.4,60.8,56.3,51.0,45.1,39.2,74,58,34,31.01,31.01,3,0,8,0.00
2013-10-24,72.5,61.2,55.8,44.6,43.0,37.4,60,52,34,31.01,31.01,5,1,11,0.00
2013-10-25,70.2,59.2,51.4,48.2,43.9,39.2,69,58,38,31.01,31.01,4,0,8,0.00
2013-10-26,76.7,58.6,48.3,60.5,43.2,39.2,83,59,32,31.01,31.01,4,0,9,0.00
2013-10-27,75.2,58.9,47.2,52.5,42.9,38.1,73,57,33,31.01,31.01,4,1,9,0.00
2013-10-28,68.4,59.7,54.0,44.6,37.8,32.0,58,44,34,31.01,31.01,6,3,13,0.00
2013-10-29,68.9,57.9,46.8,44.6,37.7,33.8,67,47,34,31.01,31.01,5,1,10,0.00
2013-10-30,75.2,56.8,47.3,42.8,34.0,-99.9,66,46,31,31.01,31.01,4,1,9,0.00
2013-10-31,81.5,54.7,47.8,48.2,19.3,-99.9,52,32,30,31.01,31.01,5,1,8,0.00
2013-11-1,84.5,55.9,50.5,48.2,15.6,-99.9,38,28,29,31.01,31.01,6,2,8,0.00
2013-11-2,87.2,61.2,49.3,51.8,29.4,-99.9,56,36,29,31.01,31.01,5,1,8,0.00
2013-11-3,73.4,51.9,49.1,51.8,23.8,-99.9,75,45,33,31.01,31.01,4,0,9,0.00
2013-11-4,72.1,59.9,49.9,44.6,38.5,-99.9,65,47,33,31.01,31.01,4,1,10,0.00
2013-11-5,81.1,61.5,47.5,46.4,33.5,23.8,51,35,30,31.01,31.01,6,2,8,0.00
2013-11-6,85.5,63.3,49.8,50.0,33.8,-99.9,37,33,29,31.01,30.12,5,1,11,0.00
2013-11-7,88.4,68.8,54.0,51.8,37.2,-99.9,36,32,28,0.00,40.00,6,1,8,0.00
2013-11-8,80.8,59.2,46.8,46.4,31.6,-99.9,41,36,30,0.00,40.00,5,1,8,0.00
2013-11-9,80.4,59.2,47.3,48.5,36.4,23.7,63,43,30,0.00,40.00,3,0,8,0.00
2013-11-10,87.7,58.1,48.4,51.8,32.0,-99.9,56,40,28,0.00,40.00,5,1,12,0.00
2013-11-11,83.3,49.0,45.5,48.2,15.2,-99.9,56,36,29,0.00,40.00,6,1,8,0.00
2013-11-12,78.4,62.1,53.1,46.4,36.3,28.8,52,38,31,0.00,40.00,5,1,8,0.00
2013-11-13,91.9,69.5,56.8,53.6,34.8,-99.9,36,30,27,0.00,40.00,5,1,9,0.00
2013-11-14,89.3,68.6,53.1,51.8,41.3,33.8,60,39,28,0.00,40.00,4,0,7,0.00
2013-11-15,75.2,59.5,50.9,50.0,41.1,33.8,72,52,32,0.00,40.00,4,0,8,0.00
2013-11-16,71.4,58.7,50.0,46.4,40.8,33.8,68,52,34,0.00,40.00,4,0,8,0.00
2013-11-17,75.5,57.4,48.6,47.1,38.8,33.8,68,52,31,0.00,40.00,4,0,8,0.00
2013-11-18,69.6,56.3,47.1,54.0,40.1,35.6,79,56,34,0.00,40.00,4,1,9,0.00
2013-11-19,68.1,57.9,53.3,44.6,40.5,35.6,66,53,36,0.00,40.00,4,0,9,0.00
2013-11-20,74.1,60.2,52.3,51.8,43.6,37.4,75,56,32,0.00,40.00,3,0,7,0.20
2013-11-21,62.7,58.7,57.9,57.2,53.0,50.0,85,81,75,0.00,40.00,0,0,0,0.17
2013-11-22,68.2,58.5,54.3,37.4,31.3,27.9,37,35,33,29.53,29.39,5,3,15,0.00
2013-11-23,70.6,58.3,50.2,39.2,31.1,25.6,39,35,32,29.68,29.47,5,3,12,0.00
2013-11-24,75.8,57.0,45.9,42.8,32.0,25.0,52,39,31,29.80,29.62,5,2,9,0.00
2013-11-25,76.5,59.5,45.9,44.6,32.8,25.6,52,37,31,29.83,29.68,5,2,11,0.00
2013-11-26,74.9,60.4,49.9,42.8,32.3,-99.9,38,35,31,29.74,29.59,5,1,8,0.00
2013-11-27,82.1,62.8,49.6,48.2,35.1,-99.9,57,37,30,29.62,29.47,4,2,12,0.00
2013-11-28,72.1,58.2,47.1,42.8,36.1,27.3,58,44,32,29.59,29.44,5,2,7,0.00
2013-11-29,73.8,60.6,52.2,41.0,35.4,29.0,56,39,32,29.74,29.59,5,2,8,0.08
2013-11-30,79.1,60.1,48.9,46.4,33.2,26.1,42,36,30,29.77,29.68,5,2,8,0.00
2013-12-1,84.4,65.5,53.1,48.2,36.1,27.5,37,33,29,29.80,29.68,6,2,8,0.00
2013-12-2,81.1,62.1,48.6,46.4,33.7,24.1,38,34,30,29.71,29.47,6,2,7,0.00
2013-12-3,70.4,54.9,45.1,41.0,33.3,22.4,63,44,34,29.47,29.27,5,2,11,0.00
2013-12-4,66.3,50.2,36.7,35.6,25.6,14.7,56,38,33,29.50,29.30,6,2,9,0.00
2013-12-5,63.8,49.7,38.8,35.6,24.4,16.6,40,37,34,29.65,29.42,5,2,10,0.00
2013-12-6,67.1,49.2,37.4,37.1,24.9,18.2,50,39,33,29.68,29.56,5,2,9,0.00
2013-12-7,59.3,45.5,35.6,44.6,27.1,16.2,72,49,36,29.68,29.50,6,3,15,0.29
2013-12-8,59.2,45.7,36.1,32.0,21.8,15.3,45,38,35,29.74,29.56,4,1,9,0.00
2013-12-9,64.5,51.0,42.7,35.6,25.4,19.0,38,37,33,29.83,29.65,5,2,11,0.00
2013-12-10,70.2,56.5,47.2,39.2,29.3,22.1,37,35,32,29.80,29.62,5,2,12,0.00
2013-12-11,77.1,61.4,52.4,44.6,33.0,26.3,36,34,31,29.74,29.59,5,2,10,0.00
2013-12-12,74.0,56.5,42.4,41.0,29.6,19.7,41,36,31,29.77,29.65,5,2,11,0.00
2013-12-13,70.3,49.9,39.9,39.2,27.8,18.6,58,43,32,29.74,29.62,5,1,8,0.00
2013-12-14,80.5,57.9,40.1,46.4,30.9,19.6,58,36,30,29.89,29.65,5,2,11,0.00
2013-12-15,83.5,63.9,47.2,48.2,34.7,22.2,37,34,29,29.83,29.68,6,2,8,0.00
2013-12-16,86.4,72.2,60.1,50.0,41.0,32.0,35,32,29,29.74,29.62,5,1,10,0.00
2013-12-17,89.1,71.7,62.0,51.8,40.3,33.8,36,32,28,29.74,29.56,5,1,10,0.00
2013-12-18,70.2,59.9,53.2,44.6,39.3,32.0,63,47,32,29.62,29.42,5,1,11,0.00
2013-12-19,62.6,52.5,42.2,39.2,33.0,25.4,59,48,34,29.42,29.24,6,2,11,0.00
2013-12-20,71.1,51.8,41.5,41.0,27.9,21.5,51,40,32,29.47,29.27,6,2,8,0.00
2013-12-21,70.2,52.2,42.1,39.2,30.0,19.6,70,43,32,29.65,29.39,5,1,8,0.00
2013-12-22,70.8,50.1,42.3,46.8,30.7,-99.9,76,54,32,29.83,29.59,5,0,8,0.00
2013-12-23,78.6,57.2,44.6,46.4,31.5,22.2,65,38,31,29.86,29.74,5,1,8,0.00
2013-12-24,55.9,52.5,50.2,29.3,26.7,24.9,37,37,36,29.77,29.71,5,3,6,0.00
2013-12-26,56.6,53.9,51.5,29.2,27.5,25.8,37,36,35,29.68,29.68,6,4,7,0.00
2013-12-27,88.9,64.9,50.3,51.8,35.4,25.0,37,34,28,29.71,29.59,5,1,7,0.00
2013-12-28,79.8,57.6,43.9,46.4,29.8,-99.9,43,35,30,29.62,29.50,4,1,7,0.00
2013-12-29,80.8,60.5,42.1,46.4,32.1,-99.9,44,35,30,29.74,29.50,6,1,10,0.00
2013-12-30,81.2,59.1,45.9,46.4,31.2,21.5,38,35,30,29.83,29.71,5,1,7,0.00
2013-12-31,72.3,51.6,42.3,41.0,27.2,-99.9,53,40,32,29.74,29.59,5,1,6,0.00
2014-1-1,72.1,53.8,42.3,41.0,30.2,19.1,54,41,32,29.68,29.53,5,1,8,0.00
2014-1-2,83.9,67.1,52.7,48.2,36.9,26.5,36,33,29,29.68,29.59,4,1,11,0.00